Location: Tamazert
(32.6352°N, 5.2072°W)
Time: 16:55:32
(UTC+00:00)

USA 229 DEB - Pass Details

Date: 22 May 2022
Orbit: 934 x 1278 km, 63.4° (Epoch: 24 May)

Event Time Altitude Azimuth Distance (km) Brightness Sun altitude
Rises 02:11:34 0° 332° (NNW) 4,032 7.1 -30.4°
Reaches altitude 10° 02:14:16 10° 336° (NNW) 3,112 6.5 -30.1°
Maximum altitude 02:21:47 67° 58° (ENE) 1,331 4.2 -29.2°
Drops below altitude 10° 02:29:41 10° 141° (SE) 3,258 6.1 -28.3°
Sets 02:32:32 0° 143° (SE) 4,230 6.7 -28.0°
